Latest Weather Observations for Wudinna Airport

IDS60801

Issued at 8:05 pm CDT Sunday 26 October 2014 (issued every 30 minutes, with the page automatically refreshed every 10 minutes)

About weather observations | Map of weather stations | Latest weather observations for SA | Other Formats
Station Details ID: 018083 Name: WUDINNA AERO Lat: -33.04 Lon: 135.45 Height: 86.4 m
Data from the previous 72 hours. | See also: Recent months at Wudinna Airport
Date/Time
CDT
Temp
°C
App
Temp
°C
Dew
Point
Rel
Hum
%
Delta-T
°C
Wind Press
QNH
hPa
Press
MSL
hPa
Rain
since 9 am
mm
Dir
 
Spd
km/h
Gust
km/h
Spd
kts
Gust
kts
26/08:00pm 18.2 15.1 11.5 65 3.7 SSW 19 28 10 15 1012.2 - 0.8
26/07:30pm 18.9 14.6 12.2 65 3.7 SSW 26 37 14 20 1011.5 - 0.8
26/07:00pm 19.9 14.8 13.1 65 3.9 SW 32 41 17 22 1010.9 - 0.8
26/06:30pm 22.2 16.9 14.1 60 4.7 SW 35 44 19 24 1010.0 - 0.8
26/06:00pm 26.2 20.7 11.9 41 8.2 SW 32 41 17 22 1009.0 1008.8 0.8
26/05:30pm 26.9 24.0 12.2 40 8.5 WSW 19 24 10 13 1008.2 - 0.8
26/05:00pm 25.6 21.5 13.8 48 7.0 WSW 28 37 15 20 1007.6 - 0.8
26/04:30pm 26.3 22.2 15.0 49 6.8 WSW 30 35 16 19 1007.4 - 0.8
26/04:00pm 30.6 24.3 11.1 30 11.3 SW 35 46 19 25 1006.2 - 0.8
26/03:41pm 33.9 27.1 10.5 24 13.6 SW 37 44 20 24 1005.6 - 0.8
26/03:30pm 35.7 30.0 6.9 17 16.0 NNW 26 37 14 20 1005.2 - 0.8
26/03:09pm 35.8 29.4 7.0 17 16.0 NNW 30 48 16 26 1005.5 - 0.8
26/03:00pm 35.4 29.3 6.6 17 15.9 NNW 28 39 15 21 1005.9 1005.8 0.8
26/02:30pm 36.1 29.6 8.0 18 15.9 N 32 50 17 27 1006.1 - 0.8
26/02:12pm 35.6 29.4 9.9 21 14.9 NNE 33 52 18 28 1006.3 - 0.8
26/02:00pm 35.0 28.6 10.8 23 14.2 NNE 35 50 19 27 1006.5 - 0.8
26/01:41pm 33.4 25.9 10.7 25 13.3 NNE 41 61 22 33 1006.5 - 0.8
26/01:30pm 33.0 25.0 10.4 25 13.1 NNE 43 59 23 32 1006.7 - 0.8
26/01:27pm 32.9 25.6 10.3 25 13.1 NNE 39 57 21 31 1006.8 - 0.8
26/01:00pm 31.1 25.5 12.0 31 11.2 N 33 46 18 25 1007.5 - 0.8
26/12:30pm 29.5 24.2 12.4 35 10.1 N 32 43 17 23 1008.1 - 0.8
26/12:00pm 28.6 25.3 14.1 41 8.7 NNE 24 35 13 19 1008.7 1008.5 0.8
26/11:30am 28.0 24.8 13.1 39 8.8 NNE 22 35 12 19 1009.3 - 0.8
26/11:00am 26.1 24.5 14.9 50 6.8 NNE 17 24 9 13 1009.7 - 0.8
26/10:30am 24.0 20.5 14.4 55 5.7 N 26 35 14 19 1010.4 - 0.8
26/10:04am 24.1 19.1 13.3 51 6.3 NNW 32 48 17 26 1010.9 - 0.8
26/10:00am 24.2 19.9 14.3 54 5.9 NNW 30 48 16 26 1012.9 - 0.8
26/09:30am 18.8 15.2 14.3 75 2.6 NW 26 39 14 21 1014.1 - 0.6
26/09:00am 21.1 18.9 14.5 66 3.9 NW 19 22 10 12 1014.6 1014.4 0.8
26/08:30am 18.0 17.8 14.7 81 1.9 ENE 9 17 5 9 1013.5 - 0.8
26/08:12am 19.1 18.8 13.3 69 3.3 N 7 13 4 7 1013.5 - 0.4
26/08:00am 19.0 16.0 12.7 67 3.5 E 20 24 11 13 1011.4 - 0.4
26/07:35am 18.0 13.5 12.7 71 3.0 SSW 28 41 15 22 1012.5 - 0.4
26/07:30am 19.0 18.1 12.7 67 3.5 ENE 9 15 5 8 1012.0 - 0.4
26/06:30am 17.8 14.6 12.0 69 3.2 ENE 20 32 11 17 1010.5 - 0.4
26/06:00am 17.1 14.0 12.2 73 2.7 E 20 24 11 13 1011.2 1011.0 0.4
26/05:30am 16.4 13.4 12.6 78 2.1 NE 20 24 11 13 1010.5 - 0.4
26/05:26am 16.7 15.3 12.3 75 2.4 E 11 20 6 11 1010.9 - 0.4
26/05:00am 16.6 15.0 12.9 79 2.1 SSW 13 20 7 11 1013.0 - 0.4
26/04:30am 18.8 15.9 14.1 74 2.7 W 22 26 12 14 1013.3 - 0.4
26/04:12am 18.8 12.6 13.9 73 2.8 W 39 57 21 31 1014.3 - 0.2
26/04:07am 20.3 12.1 11.8 58 4.7 W 46 57 25 31 1014.0 - 0.0
26/04:00am 19.8 15.9 8.8 49 5.8 WSW 19 35 10 19 1013.1 - 0.0
26/03:44am 19.5 13.7 7.9 47 6.0 SW 28 37 15 20 1011.7 - 0.0
26/03:30am 20.7 18.5 9.3 48 6.1 NE 11 15 6 8 1010.3 - 0.0
26/03:27am 20.5 18.3 9.4 49 5.9 NE 11 15 6 8 1010.2 - 0.0
26/03:00am 15.5 14.8 8.7 64 3.5 ENE 2 7 1 4 1010.2 1010.0 0.0
26/02:30am 15.9 15.0 9.1 64 3.5 SE 4 6 2 3 1011.0 - 0.0
26/02:00am 15.1 13.6 9.2 68 3.0 E 7 11 4 6 1011.5 - 0.0
26/12:30am 15.9 14.3 8.6 62 3.7 E 7 9 4 5 1013.4 - 0.0
26/12:00am 17.2 15.9 10.1 63 3.8 SE 7 11 4 6 1013.8 1013.6 0.0
 
Date/Time
CDT
Temp
°C
App
Temp
°C
Dew
Point
Rel
Hum
%
Delta-T
°C
Wind Press
QNH
hPa
Press
MSL
hPa
Rain
since 9 am
mm
Dir
 
Spd
km/h
Gust
km/h
Spd
kts
Gust
kts
25/11:30pm 16.1 14.2 6.8 54 4.6 S 6 7 3 4 1014.2 - 0.0
25/11:00pm 15.9 13.7 5.5 50 5.0 SE 6 7 3 4 1014.4 - 0.0
25/10:30pm 17.9 16.3 8.2 53 5.0 S 6 7 3 4 1015.0 - 0.0
25/10:00pm 19.3 17.8 9.2 52 5.3 S 7 9 4 5 1015.5 - 0.0
25/09:30pm 19.6 18.5 8.6 49 5.8 WNW 4 7 2 4 1015.4 - 0.0
25/09:00pm 20.9 19.5 9.5 48 6.1 WSW 7 9 4 5 1015.4 1015.3 0.0
25/08:30pm 22.1 19.2 4.6 32 8.6 SW 9 13 5 7 1015.1 - 0.0
25/08:00pm 24.4 21.0 4.2 27 10.0 SSW 11 13 6 7 1014.8 - 0.0
25/07:30pm 26.9 22.7 4.0 23 11.5 S 15 19 8 10 1014.7 - 0.0
25/07:00pm 29.0 24.0 3.8 20 12.8 S 19 20 10 11 1014.7 - 0.0
25/06:30pm 29.9 25.3 3.8 19 13.3 SW 17 24 9 13 1014.5 - 0.0
25/06:00pm 31.0 25.7 3.1 17 14.2 SSW 20 26 11 14 1014.4 1014.2 0.0
25/05:30pm 31.3 25.9 2.5 16 14.5 S 20 28 11 15 1014.2 - 0.0
25/05:00pm 31.4 26.2 3.4 17 14.3 S 20 30 11 16 1014.2 - 0.0
25/04:30pm 31.3 26.2 4.2 18 14.1 SW 20 30 11 16 1014.4 - 0.0
25/04:00pm 30.9 25.4 3.8 18 13.9 SSW 22 35 12 19 1014.8 - 0.0
25/03:30pm 30.8 26.0 4.5 19 13.7 SSW 19 30 10 16 1015.0 - 0.0
25/03:00pm 29.9 25.5 6.5 23 12.5 SW 19 28 10 15 1015.6 1015.5 0.0
25/02:30pm 29.3 25.8 8.9 28 11.3 SW 17 28 9 15 1016.2 - 0.0
25/02:00pm 27.3 24.2 8.7 31 10.2 SSW 15 24 8 13 1016.4 - 0.0
25/01:30pm 26.6 23.2 9.0 33 9.7 W 17 32 9 17 1016.7 - 0.0
25/01:00pm 25.5 22.5 10.5 39 8.4 SW 17 24 9 13 1017.1 - 0.0
25/12:30pm 24.1 23.0 11.8 46 7.0 WSW 9 15 5 8 1017.5 - 0.0
25/12:00pm 21.8 21.4 12.4 55 5.3 W 6 13 3 7 1018.0 1017.9 0.0
25/11:30am 19.9 19.0 12.7 63 4.1 S 9 13 5 7 1018.4 - 0.0
25/11:00am 18.1 17.7 13.0 72 2.9 SW 7 13 4 7 1018.8 - 0.0
25/10:30am 16.7 16.6 13.2 80 2.0 SSW 6 11 3 6 1019.0 - 0.0
25/10:00am 15.1 14.9 13.0 87 1.2 SW 6 9 3 5 1019.1 - 0.0
25/09:30am 14.4 15.1 13.3 93 0.6 WNW 2 7 1 4 1019.0 - 0.0
25/09:00am 13.9 13.2 13.1 95 0.4 SSE 9 13 5 7 1019.0 1018.9 0.0
25/08:30am 13.7 12.9 12.9 95 0.4 SSE 9 13 5 7 1018.9 - 0.0
25/08:00am 13.3 12.1 12.7 96 0.3 S 11 17 6 9 1018.9 - 0.0
25/07:30am 12.7 11.2 11.9 95 0.4 S 11 15 6 8 1018.6 - 0.0
25/07:00am 12.5 10.6 11.7 95 0.4 SSW 13 17 7 9 1018.4 - 0.0
25/06:30am 12.7 11.6 11.9 95 0.4 SW 9 13 5 7 1018.4 - 0.0
25/06:00am 12.8 12.1 12.0 95 0.4 WNW 7 11 4 6 1018.4 1018.3 0.0
25/05:30am 12.9 11.1 12.0 94 0.5 W 13 15 7 8 1018.2 - 0.0
25/05:00am 12.8 10.9 11.9 94 0.5 W 13 17 7 9 1017.9 - 0.0
25/04:30am 11.9 10.8 10.8 93 0.6 NW 7 9 4 5 1017.3 - 0.0
25/04:00am 9.6 7.8 7.2 85 1.1 NNW 6 7 3 4 1016.9 - 0.0
25/03:30am 10.0 8.3 7.6 85 1.2 NW 6 7 3 4 1016.7 - 0.0
25/03:00am 10.3 9.7 7.2 81 1.5 CALM 0 6 0 3 1016.4 1016.3 0.0
25/02:30am 11.1 10.2 7.6 79 1.7 NW 2 6 1 3 1016.3 - 0.0
25/02:00am 12.3 10.9 9.5 83 1.4 W 7 7 4 4 1016.7 - 0.0
25/01:30am 13.2 13.4 10.4 83 1.5 CALM 0 0 0 0 1016.9 - 0.0
25/01:00am 13.7 12.7 10.9 83 1.5 SW 7 11 4 6 1017.0 - 0.0
25/12:30am 14.6 13.3 11.2 80 1.8 SW 9 11 5 6 1017.1 - 0.0
25/12:00am 15.0 13.0 11.4 79 1.9 SW 13 17 7 9 1017.3 1017.2 0.0
 
Date/Time
CDT
Temp
°C
App
Temp
°C
Dew
Point
Rel
Hum
%
Delta-T
°C
Wind Press
QNH
hPa
Press
MSL
hPa
Rain
since 9 am
mm
Dir
 
Spd
km/h
Gust
km/h
Spd
kts
Gust
kts
24/11:30pm 15.7 14.3 10.9 73 2.6 SW 9 11 5 6 1017.1 - 0.0
24/11:00pm 16.7 15.2 10.5 67 3.3 SW 9 11 5 6 1016.9 - 0.0
24/10:30pm 17.8 15.6 10.7 63 3.8 SW 13 17 7 9 1016.9 - 0.0
24/10:00pm 18.2 16.0 9.5 57 4.6 SW 11 13 6 7 1016.4 - 0.0
24/09:30pm 19.2 16.6 9.4 53 5.2 SW 13 15 7 8 1016.0 - 0.0
24/09:00pm 20.7 18.5 9.3 48 6.1 S 11 17 6 9 1015.6 1015.5 0.0
24/08:30pm 22.2 18.1 8.7 42 7.2 S 20 26 11 14 1015.2 - 0.0
24/08:00pm 23.5 19.0 8.4 38 8.1 SSW 22 30 12 16 1014.8 - 0.0
24/07:30pm 25.5 20.7 8.9 35 9.0 SW 24 33 13 18 1014.2 - 0.0
24/07:00pm 28.0 22.4 5.6 24 11.7 SW 24 32 13 17 1013.6 - 0.0
24/06:30pm 29.9 24.4 7.7 25 12.1 SW 26 32 14 17 1013.1 - 0.0
24/06:00pm 32.2 26.3 5.7 19 14.2 WSW 26 33 14 18 1012.7 1012.5 0.0
24/05:30pm 33.1 27.3 6.4 19 14.5 WSW 26 33 14 18 1012.4 - 0.0
24/05:00pm 33.2 26.5 5.7 18 14.8 WSW 30 37 16 20 1012.0 - 0.0
24/04:30pm 34.2 27.0 4.8 16 15.7 SW 32 43 17 23 1011.8 - 0.0
24/04:00pm 36.5 29.6 4.7 14 17.1 WSW 30 43 16 23 1011.4 - 0.0
24/03:48pm 37.2 30.4 5.3 14 17.4 SW 30 50 16 27 1011.2 - 0.0
24/03:30pm 36.5 31.5 3.7 13 17.4 W 19 30 10 16 1011.3 - 0.0
24/03:00pm 37.5 32.8 3.3 12 18.1 W 17 28 9 15 1011.5 1011.3 0.0
24/02:30pm 37.1 32.0 4.1 13 17.7 WNW 20 32 11 17 1011.9 - 0.0
24/02:00pm 37.1 33.3 4.1 13 17.7 W 13 28 7 15 1012.2 - 0.0
24/01:30pm 35.8 30.9 4.2 14 16.8 WNW 19 28 10 15 1012.5 - 0.0
24/01:00pm 34.6 30.5 4.2 15 16.1 SW 15 24 8 13 1013.0 - 0.0
24/12:30pm 33.6 28.9 3.4 15 15.7 WSW 17 26 9 14 1013.5 - 0.0
24/12:00pm 33.0 27.9 2.9 15 15.4 WNW 19 30 10 16 1013.9 1013.7 0.0
24/11:30am 32.6 29.9 3.5 16 15.0 SSE 7 17 4 9 1014.2 - 0.0
24/11:00am 31.3 29.0 5.7 20 13.6 SW 7 11 4 6 1014.4 - 0.0
24/10:30am 28.6 26.9 6.1 24 11.9 NNW 4 7 2 4 1014.5 - 0.0
24/10:00am 26.9 24.9 6.9 28 10.6 SW 7 17 4 9 1014.6 - 0.0
24/09:30am 24.8 21.5 7.9 34 9.0 SW 15 20 8 11 1014.9 - 0.0
24/09:00am 22.9 20.5 8.6 40 7.6 SSW 11 17 6 9 1014.4 1014.2 0.0
24/08:30am 21.5 17.5 8.4 43 6.9 SSW 19 28 10 15 1014.4 - 0.0
24/08:00am 23.9 19.0 6.7 33 8.9 N 22 30 12 16 1013.1 - 0.0
24/07:30am 22.7 17.5 7.3 37 8.0 N 24 35 13 19 1013.0 - 0.0
24/07:00am 21.7 17.4 7.2 39 7.5 N 19 26 10 14 1012.6 - 0.0
24/06:30am 19.8 17.7 8.2 47 6.0 ENE 9 11 5 6 1012.4 - 0.0
24/06:00am 20.8 18.3 8.1 44 6.6 NE 11 17 6 9 1012.1 1011.9 0.0
24/05:30am 20.0 16.6 9.0 49 5.8 NNE 17 20 9 11 1012.1 - 0.0
24/05:00am 19.6 18.8 9.5 52 5.4 N 4 11 2 6 1012.2 - 0.0
24/04:30am 20.5 16.9 9.7 50 5.8 NNE 19 28 10 15 1012.0 - 0.0
24/04:00am 20.2 16.5 10.0 52 5.5 NNE 20 28 11 15 1011.9 - 0.0
24/03:30am 18.2 15.7 9.8 58 4.5 NE 13 17 7 9 1011.9 - 0.0
24/03:00am 18.5 16.5 10.1 58 4.5 NE 11 17 6 9 1012.1 1011.9 0.0
24/02:30am 18.4 16.5 9.2 55 4.8 NE 9 13 5 7 1012.4 - 0.0
24/02:00am 19.8 18.4 9.4 51 5.5 ENE 7 11 4 6 1013.1 - 0.0
24/01:30am 20.6 18.8 9.5 49 5.9 NE 9 15 5 8 1013.7 - 0.0
24/01:00am 20.7 17.5 9.9 50 5.8 NE 17 20 9 11 1013.6 - 0.0
24/12:30am 19.8 17.6 9.4 51 5.5 NNE 11 15 6 8 1014.4 - 0.0
24/12:00am 19.3 16.8 8.3 49 5.7 NE 11 15 6 8 1014.7 1014.5 0.0
 
Date/Time
CDT
Temp
°C
App
Temp
°C
Dew
Point
Rel
Hum
%
Delta-T
°C
Wind Press
QNH
hPa
Press
MSL
hPa
Rain
since 9 am
mm
Dir
 
Spd
km/h
Gust
km/h
Spd
kts
Gust
kts
23/11:30pm 18.8 17.1 8.2 50 5.5 ENE 7 9 4 5 1015.0 - 0.0
23/11:00pm 18.2 16.9 7.6 50 5.4 E 4 9 2 5 1015.3 - 0.0
23/10:30pm 18.0 17.5 8.0 52 5.1 CALM 0 0 0 0 1015.8 - 0.0
23/10:00pm 17.8 16.2 7.8 52 5.1 ENE 6 9 3 5 1015.4 - 0.0
23/09:30pm 17.6 15.3 7.6 52 5.1 ENE 9 13 5 7 1015.1 - 0.0
23/09:00pm 19.8 19.4 8.2 47 6.0 CALM 0 0 0 0 1015.2 1015.0 0.0
23/08:30pm 21.3 19.2 8.2 43 6.9 S 9 11 5 6 1015.0 - 0.0

Other Formats:

Comma delimited format used in spreadsheet applications
http://www.bom.gov.au/fwo/IDS60801/IDS60801.95654.axf

JavaScript Object Notation format (JSON) in row-major order
http://www.bom.gov.au/fwo/IDS60801/IDS60801.95654.json